カタログに戻る

CZ-6A DEB

運用中PO
NORAD 55516·DEBRIS·🇨🇳 China

打ち上げ Nov 11, 2022 から Taiyuan Satellite Launch Center

Loading…

次のパス (今後24時間)

TLE

最新Source: Space-Track

元期: Sep 13, 2026, 04:58 UTC

1 55516U 22151XN  26256.20719833  .00080052  00000-0  34431-2 0  9999
2 55516  98.5804 350.0284 0024237 264.5419  95.3048 15.22042768199824

AllMySatでCZ-6A DEBをリアルタイム追跡

Download on the App Store